Simultaneous Nadir Overpasses (SNOs) Predictions

Prediction of SNOs between FY3D and LANDSAT-8 Satellite Orbit:

Table of predicted SNOs for the next 14.0 days since TLE Epoch: 10/28/2022
Index Date (FY3D) Time (FY3D) Lat,Lon (FY3D) SZA (FY3D ) Date (LANDSAT-8) Time (LANDSAT-8) Lat,Lon (LANDSAT-8) SZA (LANDSAT-8 ) Distance(km) Time Diff (sec)
1 10/30/2022 12:24:35 73.13, -8.07 86.93 10/30/2022 12:25:40 73.07, -5.06 86.92 97.48 65
2 10/30/2022 13:15:02 -72.26, 161.07 93.92 10/30/2022 13:15:23 -72.26, 161.03 93.92 1.39 21
3 10/30/2022 14:05:47 72.16, -31.42 86.00 10/30/2022 14:04:50 72.17, -31.48 86.01 2.52 57
4 11/02/2022 04:42:04 72.28, 109.31 86.96 11/02/2022 04:42:24 72.30, 109.34 86.97 2.16 20
5 11/02/2022 05:32:46 -72.17, -83.15 93.15 11/02/2022 05:31:54 -72.18, -83.24 93.14 3.39 52
6 11/04/2022 20:09:03 -72.29, 57.57 92.22 11/04/2022 20:09:28 -72.29, 57.55 92.22 0.76 25
7 11/04/2022 20:59:48 72.19,-134.92 87.70 11/04/2022 20:58:55 72.19,-134.97 87.70 1.97 53
8 11/07/2022 11:36:04 72.32, 5.80 88.61 11/07/2022 11:36:28 72.28, 5.79 88.57 3.79 24
9 11/07/2022 12:26:46 -72.21, 173.33 91.49 11/07/2022 12:25:57 -72.22, 173.32 91.49 1.84 49
10 11/10/2022 03:03:02 -72.29, -45.87 90.66 11/10/2022 03:03:31 -72.29, -45.95 90.66 2.75 29
11 11/10/2022 03:53:48 72.23, 121.54 89.30 11/10/2022 03:52:57 72.25, 121.62 89.31 2.90 51



Historial Predications of SNOs between FY3D and LANDSAT-8
